AirNav   Air Wisconsin pilot careers
 
 958 users online  

T87 Flying C Airport
Sanger, Texas, USA

GOING TO SANGER?


FAA INFORMATION EFFECTIVE 08 NOVEMBER 2018

Location

FAA Identifier: T87
Lat/Long: 33-20-32.0000N / 097-16-12.0000W
33-20.533333N / 097-16.200000W
33.3422222 / -97.2700000
(estimated)
Elevation: 775 ft. / 236 m (estimated)
Variation: 06E (2000)
From city: 5 miles SW of SANGER, TX
Time zone: UTC -6 (UTC -5 during Daylight Saving Time)
Zip code: 76266

Airport Operations

Airport use: Open to the public
Activation date: 11/2000
Control tower: no
ARTCC: FORT WORTH CENTER
FSS: FORT WORTH FLIGHT SERVICE STATION
NOTAMs facility: FTW (NOTAM-D service available)
Attendance: UNATNDD
Wind indicator: yes
Segmented circle: no

Airport Communications

CTAF: 122.9
WX ASOS at DTO (9 nm SE): 119.325 (940-383-8457)
WX AWOS-3 at LUD (16 nm W): 118.225 (940-627-2365)
WX AWOS-3 at GLE (19 nm N): 118.375 (940-612-3549)

Nearby radio navigation aids

VOR radial/distance  VOR name  Freq  Var
FUZr344/27.5RANGER VORTAC115.7006E
UKWr107/29.9BOWIE VORTAC117.1506E
TTTr332/30.6MAVERICK VOR/DME113.1006E
CVEr320/32.8COWBOY VOR/DME116.2006E

 
NDB name  Hdg/Dist  Freq  Var  ID
PINCK310/5.125704EDT -.. -
MELISA275/34.542103EVLY ...- .-.. -.--

Airport Services

Runway Information

Runway 9/27

Dimensions: 1650 x 90 ft. / 503 x 27 m
Surface: turf, in fair condition
RUNWAY 9  RUNWAY 27
Traffic pattern: leftleft
Obstructions: 4 ft. fence
ALSO 25 FT TREE, 100 FT DSTC, 70 FT R & 25 FT TREES, 126 FT L, 0 TO 500 FT DSTC.
25 ft. trees

Runway 17/35

Dimensions: 1400 x 140 ft. / 427 x 43 m
Surface: turf, in fair condition
RUNWAY 17  RUNWAY 35
Traffic pattern: leftleft
Obstructions: 60 ft. trees, 300 ft. from runway, 50 ft. right of centerline, 5:1 slope to clear30 ft. trees

Airport Ownership and Management from official FAA records

Ownership: Privately-owned
Owner: CASEY CARTER
8819 BERNARD ROAD
SANGER, TX 76266
Phone (972) 978-7127
Manager: CASEY CARTER
8819 BERNARD ROAD
SANGER, TX 76266
Phone (972) 978-7127
FOR EMERGENCY CALL 972-978-7127.

Airport Operational Statistics

Aircraft based on the field: 1
Single engine airplanes: 1
    
Aircraft operations: avg 25/month *
67% local general aviation
33% transient general aviation
* for 12-month period ending 31 December 2015

Additional Remarks

OCCASIONAL LIVESTOCK ON FIELD.
FOR FLD COND CALL AMGR.
FOR CD CTC REGIONAL APCH AT 972-615-2799.

Instrument Procedures

There are no published instrument procedures at T87.

Some nearby airports with instrument procedures:

KDTO - Denton Enterprise Airport (9 nm SE)
KLUD - Decatur Municipal Airport (16 nm W)
KGLE - Gainesville Municipal Airport (19 nm N)
KAFW - Fort Worth Alliance Airport (21 nm S)
4T2 - Kenneth Copeland Airport (25 nm SW)
 
Loc | Ops | Rwys | IFR | FBO | Links
Com | Nav | Svcs | Stats | Notes


 
Area around T87 (Flying C Airport)
 
Road maps at: MapQuest Bing Google
 
Aerial photo
No photo
 
Sectional chart

 
Airport distance calculator
Flying to Flying C Airport? Find the distance to fly.

From to T87

Sunrise and sunset
Times for 20-Nov-2018
 Local
(UTC-6)
 Zulu
(UTC)
Morning civil twilight06:3912:39
Sunrise07:0613:06
Sunset17:2323:23
Evening civil twilight17:5023:50

Current date and time
Zulu (UTC)  21-Nov-2018 00:07:47
Local (UTC-6)  20-Nov-2018 18:07:47
 
METAR
KDTO 
9nm S 
202353Z 03005KT 10SM CLR 09/M01 A3032 RMK AO2 SLP269 T00891011 10144 20089 56001
KLUD 
16nm W 
118.22 940-927-2365
202355Z AUTO 00000KT 10SM CLR 10/M01 A3032 RMK AO2 T01001015 10139 20099
KGLE 
19nm N 
202355Z AUTO 08003KT 10SM CLR 10/M01 A3035 RMK AO2 T00951011 10132 20095
TAF
KAFW 
23nm S 
202104Z 2021/2118 04007KT P6SM SKC FM211400 12005KT P6SM SCT250
NOTAMs
Click for the latest NOTAMs
NOTAMs are issued by the DoD/FAA and will open in a separate window not controlled by AirNav.

 

 
 

Would you like to see your business listed on this page?

 If your business provides an interesting product or service to pilots, flight crews, aircraft, or users of the Flying C Airport, you should consider listing it here.  To start the listing process, click on the button below
 
Add a business
 

Other Pages about Flying C Airport

Update a link
 
Copyright © AirNav, LLC. All rights reserved. Privacy Policy  Contact